Date,TemperatureHighF,TemperatureAvgF,TemperatureLowF,DewpointHighF,DewpointAvgF,DewpointLowF,HumidityHigh,HumidityAvg,HumidityLow,PressureMaxIn,PressureMinIn,WindSpeedMaxMPH,WindSpeedAvgMPH,GustSpeedMaxMPH,PrecipitationSumIn
2013-1-2,49,41,36,-100,-100,-100,0,0,100,0.00,40.00,0,-999,0,0.00
2013-1-3,58,44,35,-100,-100,-100,0,0,100,0.00,40.00,0,-999,0,0.00
2013-1-4,55,43,32,-100,-100,-100,0,0,100,0.00,40.00,0,-999,0,0.00
2013-1-5,63,52,39,-100,-100,-100,0,0,100,0.00,40.00,0,-999,0,0.00
2013-1-6,54,48,44,-100,-100,-100,0,0,100,0.00,40.00,0,-999,0,0.00
2013-1-7,51,44,40,-100,-100,-100,0,0,100,0.00,40.00,0,-999,0,0.00
2013-1-8,54,44,36,-100,-100,-100,0,0,100,0.00,40.00,0,-999,0,0.00
2013-1-9,69,49,38,-100,-100,-100,0,0,100,0.00,40.00,0,-999,0,0.00
2013-1-10,51,42,37,-100,-100,-100,0,0,100,0.00,40.00,0,-999,0,0.00
2013-1-11,43,38,34,-100,-100,-100,0,0,100,0.00,40.00,0,-999,0,0.00
2013-1-12,47,37,30,-100,-100,-100,0,0,100,0.00,40.00,0,-999,0,0.00
2013-1-13,45,35,29,-100,-100,-100,0,0,100,0.00,40.00,0,-999,0,0.00
2013-1-14,42,35,30,-100,-100,-100,0,0,100,0.00,40.00,0,-999,0,0.00
2013-1-15,53,38,30,-100,-100,-100,0,0,100,0.00,40.00,0,-999,0,0.00
2013-1-16,60,42,32,-100,-100,-100,0,0,100,0.00,40.00,0,-999,0,0.00
2013-1-17,62,45,32,-100,-100,-100,0,0,100,0.00,40.00,0,-999,0,0.00
2013-1-18,65,49,38,-100,-100,-100,0,0,100,0.00,40.00,0,-999,0,0.00
2013-1-19,65,47,36,-100,-100,-100,0,0,100,0.00,40.00,0,-999,0,0.00
2013-1-20,62,47,36,-100,-100,-100,0,0,100,0.00,40.00,0,-999,0,0.00
2013-1-21,66,48,36,-100,-100,-100,0,0,100,0.00,40.00,0,-999,0,0.00
2013-1-22,71,50,39,-100,-100,-100,0,0,100,0.00,40.00,0,-999,0,0.00
2013-1-23,73,62,52,-100,-100,-100,0,0,100,0.00,40.00,0,-999,0,0.00
2013-1-24,65,58,53,-100,-100,-100,0,0,100,0.00,40.00,0,-999,0,0.00
2013-1-25,54,54,52,-100,-100,-100,0,0,100,0.00,40.00,0,-999,0,0.00
2013-1-26,57,54,51,-100,-100,-100,0,0,100,0.00,40.00,0,-999,0,0.00
2013-1-27,52,46,41,-100,-100,-100,0,0,100,0.00,40.00,0,-999,0,0.00
2013-1-28,52,43,37,-100,-100,-100,0,0,100,0.00,40.00,0,-999,0,0.00
2013-1-29,55,44,35,-100,-100,-100,0,0,100,0.00,40.00,0,-999,0,0.00
2013-1-30,63,47,37,-100,-100,-100,0,0,100,0.00,40.00,0,-999,0,0.00
2013-1-31,66,54,43,-100,-100,-100,0,0,100,0.00,40.00,0,-999,0,0.00
2013-2-1,66,53,44,-100,-100,-100,0,0,100,0.00,40.00,0,-999,0,0.00
2013-2-2,64,56,49,-100,-100,-100,0,0,100,0.00,40.00,0,-999,0,0.00
2013-2-3,62,54,47,-100,-100,-100,0,0,100,0.00,40.00,0,-999,0,0.00
2013-2-4,65,52,43,-100,-100,-100,0,0,100,0.00,40.00,0,-999,0,0.00
2013-2-5,68,55,47,-100,-100,-100,0,0,100,0.00,40.00,0,-999,0,0.00
2013-2-6,59,50,43,-100,-100,-100,0,0,100,0.00,40.00,0,-999,0,0.00
2013-2-7,54,44,37,-100,-100,-100,0,0,100,0.00,40.00,0,-999,0,0.00
2013-2-8,51,44,41,-100,-100,-100,0,0,100,0.00,40.00,0,-999,0,0.00
2013-2-9,54,45,39,-100,-100,-100,0,0,100,0.00,40.00,0,-999,0,0.00
2013-2-10,56,43,35,-100,-100,-100,0,0,100,0.00,40.00,0,-999,0,0.00
2013-2-11,60,44,36,-100,-100,-100,0,0,100,0.00,40.00,0,-999,0,0.00
2013-2-12,65,50,38,-100,-100,-100,0,0,100,0.00,40.00,0,-999,0,0.00
2013-2-13,63,49,40,-100,-100,-100,0,0,100,0.00,40.00,0,-999,0,0.00
2013-2-14,68,52,41,-100,-100,-100,0,0,100,0.00,40.00,0,-999,0,0.00
2013-2-15,76,56,42,-100,-100,-100,0,0,100,0.00,40.00,0,-999,0,0.00
2013-2-16,76,58,47,-100,-100,-100,0,0,100,0.00,40.00,0,-999,0,0.00
2013-2-17,69,56,43,-100,-100,-100,0,0,100,0.00,40.00,0,-999,0,0.00
2013-2-18,69,52,44,-100,-100,-100,0,0,100,0.00,40.00,0,-999,0,0.00
2013-2-19,54,46,37,-100,-100,-100,0,0,100,0.00,40.00,0,-999,0,0.00
2013-2-20,46,38,35,-100,-100,-100,0,0,100,0.00,40.00,0,-999,0,0.00
2013-2-21,55,44,36,-100,-100,-100,0,0,100,0.00,40.00,0,-999,0,0.00
2013-2-22,59,48,36,-100,-100,-100,0,0,100,0.00,40.00,0,-999,0,0.00
2013-2-23,59,48,38,-100,-100,-100,0,0,100,0.00,40.00,0,-999,0,0.00
2013-2-24,58,46,39,-100,-100,-100,0,0,100,0.00,40.00,0,-999,0,0.00
2013-2-25,63,47,38,-100,-100,-100,0,0,100,0.00,40.00,0,-999,0,0.00
2013-2-26,62,49,37,-100,-100,-100,0,0,100,0.00,40.00,0,-999,0,0.00
2013-2-27,68,51,40,-100,-100,-100,0,0,100,0.00,40.00,0,-999,0,0.00
2013-2-28,69,56,45,-100,-100,-100,0,0,100,0.00,40.00,0,-999,0,0.00
2013-3-1,75,58,47,-100,-100,-100,0,0,100,0.00,40.00,0,-999,0,0.00
2013-3-2,80,65,48,-100,-100,-100,0,0,100,0.00,40.00,0,-999,0,0.00
2013-3-3,71,62,53,-100,-100,-100,0,0,100,0.00,40.00,0,-999,0,0.00
2013-3-4,69,56,47,-100,-100,-100,0,0,100,0.00,40.00,0,-999,0,0.00
2013-3-5,75,59,48,-100,-100,-100,0,0,100,0.00,40.00,0,-999,0,0.00
2013-3-6,62,53,43,-100,-100,-100,0,0,100,0.00,40.00,0,-999,0,0.00
2013-3-7,59,52,47,-100,-100,-100,0,0,100,0.00,40.00,0,-999,0,0.00
2013-3-8,50,45,38,-100,-100,-100,0,0,100,0.00,40.00,0,-999,0,0.00
2013-3-9,51,45,42,-100,-100,-100,0,0,100,0.00,40.00,0,-999,0,0.00
2013-3-10,67,55,42,-100,-100,-100,0,0,100,0.00,40.00,0,-999,0,0.00
2013-3-11,69,54,44,-100,-100,-100,0,0,100,0.00,40.00,0,-999,0,0.00
2013-3-12,75,61,47,-100,-100,-100,0,0,100,0.00,40.00,0,-999,0,0.00
2013-3-13,82,66,54,-100,-100,-100,0,0,100,0.00,40.00,0,-999,0,0.00
2013-3-14,83,69,57,-100,-100,-100,0,0,100,0.00,40.00,0,-999,0,0.00
2013-3-15,78,66,55,-100,-100,-100,0,0,100,0.00,40.00,0,-999,0,0.00
2013-3-16,75,64,54,-100,-100,-100,0,0,100,0.00,40.00,0,-999,0,0.00
2013-3-17,70,60,51,-100,-100,-100,0,0,100,0.00,40.00,0,-999,0,0.00
2013-3-18,72,58,47,-100,-100,-100,0,0,100,0.00,40.00,0,-999,0,0.00
2013-3-19,76,62,48,-100,-100,-100,0,0,100,0.00,40.00,0,-999,0,0.00
2013-3-20,69,60,52,-100,-100,-100,0,0,100,0.00,40.00,0,-999,0,0.00
2013-3-21,58,55,53,-100,-100,-100,0,0,100,0.00,40.00,0,-999,0,0.00
2013-3-22,65,54,45,-100,-100,-100,0,0,100,0.00,40.00,0,-999,0,0.00
2013-3-23,68,56,41,-100,-100,-100,0,0,100,0.00,40.00,0,-999,0,0.00
2013-3-24,75,58,46,-100,-100,-100,0,0,100,0.00,40.00,0,-999,0,0.00
2013-3-25,75,63,51,-100,-100,-100,0,0,100,0.00,40.00,0,-999,0,0.00
2013-3-26,74,62,49,-100,-100,-100,0,0,100,0.00,40.00,0,-999,0,0.00
2013-3-27,77,63,51,-100,-100,-100,0,0,100,0.00,40.00,0,-999,0,0.00
2013-3-28,74,62,52,-100,-100,-100,0,0,100,0.00,40.00,0,-999,0,0.00
2013-3-29,81,66,53,-100,-100,-100,0,0,100,0.00,40.00,0,-999,0,0.00
2013-3-30,84,71,56,-100,-100,-100,0,0,100,0.00,40.00,0,-999,0,0.00
2013-3-31,68,61,57,-100,-100,-100,0,0,100,0.00,40.00,0,-999,0,0.00
2013-4-1,69,60,51,-100,-100,-100,0,0,100,0.00,40.00,0,-999,0,0.00
2013-4-2,70,59,50,-100,-100,-100,0,0,100,0.00,40.00,0,-999,0,0.00
2013-4-3,78,66,51,-100,-100,-100,0,0,100,0.00,40.00,0,-999,0,0.00
2013-4-4,76,67,58,-100,-100,-100,0,0,100,0.00,40.00,0,-999,0,0.00
2013-4-5,65,60,57,-100,-100,-100,0,0,100,0.00,40.00,0,-999,0,0.00
2013-4-6,71,59,50,-100,-100,-100,0,0,100,0.00,40.00,0,-999,0,0.00
2013-4-7,71,62,51,-100,-100,-100,0,0,100,0.00,40.00,0,-999,0,0.00
2013-4-8,61,52,46,-100,-100,-100,0,0,100,0.00,40.00,0,-999,0,0.00
2013-4-9,68,54,41,-100,-100,-100,0,0,100,0.00,40.00,0,-999,0,0.00
2013-4-10,78,63,48,-100,-100,-100,0,0,100,0.00,40.00,0,-999,0,0.00
2013-4-11,79,66,54,-100,-100,-100,0,0,100,0.00,40.00,0,-999,0,0.00
2013-4-12,83,67,54,-100,-100,-100,0,0,100,0.00,40.00,0,-999,0,0.00
2013-4-13,83,70,56,-100,-100,-100,0,0,100,0.00,40.00,0,-999,0,0.00
2013-4-14,77,65,54,-100,-100,-100,0,0,100,0.00,40.00,0,-999,0,0.00
2013-4-15,70,57,48,-100,-100,-100,0,0,100,0.00,40.00,0,-999,0,0.00
2013-4-16,63,53,42,-100,-100,-100,0,0,100,0.00,40.00,0,-999,0,0.00
2013-4-17,69,53,40,-100,-100,-100,0,0,100,0.00,40.00,0,-999,0,0.00
2013-4-18,77,62,46,-100,-100,-100,0,0,100,0.00,40.00,0,-999,0,0.00
2013-4-19,81,65,51,-100,-100,-100,0,0,100,0.00,40.00,0,-999,0,0.00
2013-4-20,83,71,57,-100,-100,-100,0,0,100,0.00,40.00,0,-999,0,0.00
2013-4-21,86,71,57,-100,-100,-100,0,0,100,0.00,40.00,0,-999,0,0.00
2013-4-22,87,72,59,-100,-100,-100,0,0,100,0.00,40.00,0,-999,0,0.00
2013-4-23,88,72,59,-100,-100,-100,0,0,100,0.00,40.00,0,-999,0,0.00
2013-4-24,88,72,61,-100,-100,-100,0,0,100,0.00,40.00,0,-999,0,0.00
2013-4-25,78,67,54,-100,-100,-100,0,0,100,0.00,40.00,0,-999,0,0.00
2013-4-26,83,69,56,-100,-100,-100,0,0,100,0.00,40.00,0,-999,0,0.00
2013-4-27,89,74,61,-100,-100,-100,0,0,100,0.00,40.00,0,-999,0,0.00
2013-4-28,92,78,63,-100,-100,-100,0,0,100,0.00,40.00,0,-999,0,0.00
2013-4-29,91,77,63,-100,-100,-100,0,0,100,0.00,40.00,0,-999,0,0.00
2013-4-30,82,71,65,-100,-100,-100,0,0,100,0.00,40.00,0,-999,0,0.00
2013-5-1,91,75,59,-100,-100,-100,0,0,100,0.00,40.00,0,-999,0,0.00
2013-5-2,93,79,59,-100,-100,-100,0,0,100,0.00,40.00,0,-999,0,0.00
2013-5-3,93,77,61,-100,-100,-100,0,0,100,0.00,40.00,0,-999,0,0.00
2013-5-4,94,78,63,-100,-100,-100,0,0,100,0.00,40.00,0,-999,0,0.00
2013-5-5,76,66,58,-100,-100,-100,0,0,100,0.00,40.00,0,-999,0,0.00
2013-5-6,76,68,57,-100,-100,-100,0,0,100,0.00,40.00,0,-999,0,0.00
2013-5-7,67,60,55,-100,-100,-100,0,0,100,0.00,40.00,0,-999,0,0.00
2013-5-8,73,63,54,-100,-100,-100,0,0,100,0.00,40.00,0,-999,0,0.00
2013-5-9,76,68,61,-100,-100,-100,0,0,100,0.00,40.00,0,-999,0,0.00
2013-5-10,86,74,61,-100,-100,-100,0,0,100,0.00,40.00,0,-999,0,0.00
2013-5-11,99,81,66,-100,-100,-100,0,0,100,0.00,40.00,0,-999,0,0.00
2013-5-12,98,85,71,-100,-100,-100,0,0,100,0.00,40.00,0,-999,0,0.00
2013-5-13,98,82,68,-100,-100,-100,0,0,100,0.00,40.00,0,-999,0,0.00
2013-5-14,92,79,66,-100,-100,-100,0,0,100,0.00,40.00,0,-999,0,0.00
2013-5-15,91,77,63,-100,-100,-100,0,0,100,0.00,40.00,0,-999,0,0.00
2013-5-16,76,67,58,-100,-100,-100,0,0,100,0.00,40.00,0,-999,0,0.00
2013-5-17,79,67,58,-100,-100,-100,0,0,100,0.00,40.00,0,-999,0,0.00
2013-5-18,81,66,54,-100,-100,-100,0,0,100,0.00,40.00,0,-999,0,0.00
2013-5-19,84,71,56,-100,-100,-100,0,0,100,0.00,40.00,0,-999,0,0.00
2013-5-20,94,74,62,-100,-100,-100,0,0,100,0.00,40.00,0,-999,0,0.00
2013-5-21,94,83,65,-100,-100,-100,0,0,100,0.00,40.00,0,-999,0,0.00
2013-5-22,73,64,54,-100,-100,-100,0,0,100,0.00,40.00,0,-999,0,0.00
2013-5-23,76,63,48,-100,-100,-100,0,0,100,0.00,40.00,0,-999,0,0.00
2013-5-24,80,67,52,-100,-100,-100,0,0,100,0.00,40.00,0,-999,0,0.00
2013-5-25,83,68,54,-100,-100,-100,0,0,100,0.00,40.00,0,-999,0,0.00
2013-5-26,80,68,54,-100,-100,-100,0,0,100,0.00,40.00,0,-999,0,0.00
2013-5-27,79,68,55,-100,-100,-100,0,0,100,0.00,40.00,0,-999,0,0.00
2013-5-28,71,62,58,-100,-100,-100,0,0,100,0.00,40.00,0,-999,0,0.00
2013-5-29,85,70,55,-100,-100,-100,0,0,100,0.00,40.00,0,-999,0,0.00
2013-5-30,86,72,58,-100,-100,-100,0,0,100,0.00,40.00,0,-999,0,0.00
2013-5-31,89,74,60,-100,-100,-100,0,0,100,0.00,40.00,0,-999,0,0.00
2013-6-1,97,82,67,-100,-100,-100,0,0,100,0.00,40.00,0,-999,0,0.00
2013-6-2,100,85,72,-100,-100,-100,0,0,100,0.00,40.00,0,-999,0,0.00
2013-6-3,96,83,72,-100,-100,-100,0,0,100,0.00,40.00,0,-999,0,0.00
2013-6-4,93,79,67,-100,-100,-100,0,0,100,0.00,40.00,0,-999,0,0.00
2013-6-5,92,80,65,-100,-100,-100,0,0,100,0.00,40.00,0,-999,0,0.00
2013-6-6,95,83,69,-100,-100,-100,0,0,100,0.00,40.00,0,-999,0,0.00
2013-6-7,99,86,73,-100,-100,-100,0,0,100,0.00,40.00,0,-999,0,0.00
2013-6-8,108,93,79,-100,-100,-100,0,0,100,0.00,40.00,0,-999,0,0.00
2013-6-9,104,89,74,-100,-100,-100,0,0,100,0.00,40.00,0,-999,0,0.00
2013-6-10,87,76,65,-100,-100,-100,0,0,100,0.00,40.00,0,-999,0,0.00
2013-6-11,94,78,64,-100,-100,-100,0,0,100,0.00,40.00,0,-999,0,0.00
2013-6-12,96,83,69,-100,-100,-100,0,0,100,0.00,40.00,0,-999,0,0.00
2013-6-13,87,78,65,-100,-100,-100,0,0,100,0.00,40.00,0,-999,0,0.00
2013-6-14,90,75,62,-100,-100,-100,0,0,100,0.00,40.00,0,-999,0,0.00
2013-6-15,94,80,64,-100,-100,-100,0,0,100,0.00,40.00,0,-999,0,0.00
2013-6-16,92,78,63,-100,-100,-100,0,0,100,0.00,40.00,0,-999,0,0.00
2013-6-17,91,77,63,-100,-100,-100,0,0,100,0.00,40.00,0,-999,0,0.00
2013-6-18,87,75,61,-100,-100,-100,0,0,100,0.00,40.00,0,-999,0,0.00
2013-6-19,80,68,55,-100,-100,-100,0,0,100,0.00,40.00,0,-999,0,0.00
2013-6-20,78,67,55,-100,-100,-100,0,0,100,0.00,40.00,0,-999,0,0.00
2013-6-22,92,84,75,-100,-100,-100,0,0,100,0.00,40.00,0,-999,0,0.00
2013-6-23,88,79,65,-100,-100,-100,0,0,100,0.00,40.00,0,-999,0,0.00
2013-6-24,85,74,62,-100,-100,-100,0,0,100,0.00,40.00,0,-999,0,0.00
2013-6-25,92,80,65,-100,-100,-100,0,0,100,0.00,40.00,0,-999,0,0.00
2013-6-26,94,82,71,-100,-100,-100,0,0,100,0.00,40.00,0,-999,0,0.00
2013-6-27,97,84,73,-100,-100,-100,0,0,100,0.00,40.00,0,-999,0,0.00
2013-6-28,102,90,78,-100,-100,-100,0,0,100,0.00,40.00,0,-999,0,0.00
2013-6-29,105,92,79,-100,-100,-100,0,0,100,0.00,40.00,0,-999,0,0.00
2013-6-30,106,94,81,-100,-100,-100,0,0,100,0.00,40.00,0,-999,0,0.00
2013-7-1,101,91,81,-100,-100,-100,0,0,100,0.00,40.00,0,-999,0,0.00
2013-7-2,109,94,82,-100,-100,-100,0,0,100,0.00,40.00,0,-999,0,0.00
2013-7-3,104,93,82,-100,-100,-100,0,0,100,0.00,40.00,0,-999,0,0.00
2013-7-4,107,95,82,-100,-100,-100,0,0,100,0.00,40.00,0,-999,0,0.00
2013-7-5,105,94,82,-100,-100,-100,0,0,100,0.00,40.00,0,-999,0,0.00
2013-7-6,101,85,73,-100,-100,-100,0,0,100,0.00,40.00,0,-999,0,0.00
2013-7-7,105,87,72,-100,-100,-100,0,0,100,0.00,40.00,0,-999,0,0.00
2013-7-8,105,87,72,-100,-100,-100,0,0,100,0.00,40.00,0,-999,0,0.00
2013-7-9,104,87,74,-100,-100,-100,0,0,100,0.00,40.00,0,-999,0,0.00
2013-7-10,97,86,77,-100,-100,-100,0,0,100,0.00,40.00,0,-999,0,0.00
2013-7-11,98,87,77,-100,-100,-100,0,0,100,0.00,40.00,0,-999,0,0.00
2013-7-12,98,81,69,-100,-100,-100,0,0,100,0.00,40.00,0,-999,0,0.00
2013-7-13,104,88,72,-100,-100,-100,0,0,100,0.00,40.00,0,-999,0,0.00
2013-7-14,101,87,72,-100,-100,-100,0,0,100,0.00,40.00,0,-999,0,0.00
2013-7-15,102,86,73,-100,-100,-100,0,0,100,0.00,40.00,0,-999,0,0.00
2013-7-16,97,82,69,-100,-100,-100,0,0,100,0.00,40.00,0,-999,0,0.00
2013-7-17,95,80,66,-100,-100,-100,0,0,100,0.00,40.00,0,-999,0,0.00
2013-7-18,95,83,70,-100,-100,-100,0,0,100,0.00,40.00,0,-999,0,0.00
2013-7-19,99,86,73,-100,-100,-100,0,0,100,0.00,40.00,0,-999,0,0.00
2013-7-20,102,88,77,-100,-100,-100,0,0,100,0.00,40.00,0,-999,0,0.00
2013-7-21,103,91,80,-100,-100,-100,0,0,100,0.00,40.00,0,-999,0,0.00
2013-7-22,99,89,80,-100,-100,-100,0,0,100,0.00,40.00,0,-999,0,0.00
2013-7-23,101,88,76,-100,-100,-100,0,0,100,0.00,40.00,0,-999,0,0.00
2013-7-24,99,86,73,-100,-100,-100,0,0,100,0.00,40.00,0,-999,0,0.00
2013-7-25,103,89,76,-100,-100,-100,0,0,100,0.00,40.00,0,-999,0,0.00
2013-7-26,96,88,80,-100,-100,-100,0,0,100,0.00,40.00,0,-999,0,0.00
2013-7-27,102,89,78,-100,-100,-100,0,0,100,0.00,40.00,0,-999,0,0.00
2013-7-28,104,90,76,-100,-100,-100,0,0,100,0.00,40.00,0,-999,0,0.00
2013-7-29,101,88,76,-100,-100,-100,0,0,100,0.00,40.00,0,-999,0,0.00
2013-7-30,97,83,72,-100,-100,-100,0,0,100,0.00,40.00,0,-999,0,0.00
2013-7-31,96,81,69,-100,-100,-100,0,0,100,0.00,40.00,0,-999,0,0.00
2013-8-1,93,82,68,-100,-100,-100,0,0,100,0.00,40.00,0,-999,0,0.00
2013-8-2,93,78,63,-100,-100,-100,0,0,100,0.00,40.00,0,-999,0,0.00
2013-8-3,96,80,67,-100,-100,-100,0,0,100,0.00,40.00,0,-999,0,0.00
2013-8-4,98,82,68,-100,-100,-100,0,0,100,0.00,40.00,0,-999,0,0.00
2013-8-5,95,80,68,-100,-100,-100,0,0,100,0.00,40.00,0,-999,0,0.00
2013-8-6,97,81,67,-100,-100,-100,0,0,100,0.00,40.00,0,-999,0,0.00
2013-8-7,91,76,65,-100,-100,-100,0,0,100,0.00,40.00,0,-999,0,0.00
2013-8-8,90,76,63,-100,-100,-100,0,0,100,0.00,40.00,0,-999,0,0.00
2013-8-9,91,78,64,-100,-100,-100,0,0,100,0.00,40.00,0,-999,0,0.00
2013-8-10,91,78,65,-100,-100,-100,0,0,100,0.00,40.00,0,-999,0,0.00
2013-8-11,92,77,64,-100,-100,-100,0,0,100,0.00,40.00,0,-999,0,0.00
2013-8-12,95,80,66,-100,-100,-100,0,0,100,0.00,40.00,0,-999,0,0.00
2013-8-13,97,82,67,-100,-100,-100,0,0,100,0.00,40.00,0,-999,0,0.00
2013-8-14,99,85,70,-100,-100,-100,0,0,100,0.00,40.00,0,-999,0,0.00
2013-8-15,99,87,71,-100,-100,-100,0,0,100,0.00,40.00,0,-999,0,0.00
2013-8-16,99,85,73,-100,-100,-100,0,0,100,0.00,40.00,0,-999,0,0.00
2013-8-17,100,86,73,-100,-100,-100,0,0,100,0.00,40.00,0,-999,0,0.00
2013-8-18,95,85,73,-100,-100,-100,0,0,100,0.00,40.00,0,-999,0,0.00
2013-8-19,107,90,79,-100,-100,-100,0,0,100,0.00,40.00,0,-999,0,0.00
2013-8-20,102,88,74,-100,-100,-100,0,0,100,0.00,40.00,0,-999,0,0.00
2013-8-21,100,83,71,-100,-100,-100,0,0,100,0.00,40.00,0,-999,0,0.00
2013-8-22,97,86,72,-100,-100,-100,0,0,100,0.00,40.00,0,-999,0,0.00
2013-8-23,93,82,68,-100,-100,-100,0,0,100,0.00,40.00,0,-999,0,0.00
2013-8-24,97,83,70,-100,-100,-100,0,0,100,0.00,40.00,0,-999,0,0.00
2013-8-25,92,80,67,-100,-100,-100,0,0,100,0.00,40.00,0,-999,0,0.00
2013-8-26,92,80,67,-100,-100,-100,0,0,100,0.00,40.00,0,-999,0,0.00
2013-8-27,87,77,71,-100,-100,-100,0,0,100,0.00,40.00,0,-999,0,0.00
2013-8-28,97,89,81,-100,-100,-100,0,0,100,0.00,40.00,0,-999,0,0.00
2013-8-29,95,85,71,-100,-100,-100,0,0,100,0.00,40.00,0,-999,0,0.00
2013-8-30,98,86,74,-100,-100,-100,0,0,100,0.00,40.00,0,-999,0,0.00
2013-8-31,101,89,79,-100,-100,-100,0,0,100,0.00,40.00,0,-999,0,0.00
2013-9-1,96,85,76,-100,-100,-100,0,0,100,0.00,40.00,0,-999,0,0.00
2013-9-2,92,84,74,-100,-100,-100,0,0,100,0.00,40.00,0,-999,0,0.00
2013-9-3,91,83,73,-100,-100,-100,0,0,100,0.00,40.00,0,-999,0,0.00
2013-9-4,91,82,70,-100,-100,-100,0,0,100,0.00,40.00,0,-999,0,0.00
2013-9-5,92,81,72,-100,-100,-100,0,0,100,0.00,40.00,0,-999,0,0.00
2013-9-6,94,82,67,-100,-100,-100,0,0,100,0.00,40.00,0,-999,0,0.00
2013-9-7,104,86,73,-100,-100,-100,0,0,100,0.00,40.00,0,-999,0,0.00
2013-9-8,101,86,74,-100,-100,-100,0,0,100,0.00,40.00,0,-999,0,0.00
2013-9-9,99,85,75,-100,-100,-100,0,0,100,0.00,40.00,0,-999,0,0.00
2013-9-10,100,85,75,-100,-100,-100,0,0,100,0.00,40.00,0,-999,0,0.00
2013-9-11,91,80,71,-100,-100,-100,0,0,100,0.00,40.00,0,-999,0,0.00
2013-9-12,91,77,66,-100,-100,-100,0,0,100,0.00,40.00,0,-999,0,0.00
2013-9-13,94,83,70,-100,-100,-100,0,0,100,0.00,40.00,0,-999,0,0.00
2013-9-14,97,85,73,-100,-100,-100,0,0,100,0.00,40.00,0,-999,0,0.00
2013-9-15,94,84,71,-100,-100,-100,0,0,100,0.00,40.00,0,-999,0,0.00
2013-9-16,91,76,67,-100,-100,-100,0,0,100,0.00,40.00,0,-999,0,0.00
2013-9-17,88,77,65,-100,-100,-100,0,0,100,0.00,40.00,0,-999,0,0.00
2013-9-18,76,67,61,-100,-100,-100,0,0,100,0.00,40.00,0,-999,0,0.00
2013-9-19,91,75,63,-100,-100,-100,0,0,100,0.00,40.00,0,-999,0,0.00
2013-9-20,94,80,68,-100,-100,-100,0,0,100,0.00,40.00,0,-999,0,0.00
2013-9-21,86,71,62,-100,-100,-100,0,0,100,0.00,40.00,0,-999,0,0.00
2013-9-22,73,65,58,-100,-100,-100,0,0,100,0.00,40.00,0,-999,0,0.00
2013-9-23,80,68,56,-100,-100,-100,0,0,100,0.00,40.00,0,-999,0,0.00
2013-9-24,89,76,63,-100,-100,-100,0,0,100,0.00,40.00,0,-999,0,0.00
2013-9-25,74,67,58,-100,-100,-100,0,0,100,0.00,40.00,0,-999,0,0.00
2013-9-26,71,62,54,-100,-100,-100,0,0,100,0.00,40.00,0,-999,0,0.00
2013-9-27,79,64,53,-100,-100,-100,0,0,100,0.00,40.00,0,-999,0,0.00
2013-9-28,85,70,57,-100,-100,-100,0,0,100,0.00,40.00,0,-999,0,0.00
2013-9-29,87,74,62,-100,-100,-100,0,0,100,0.00,40.00,0,-999,0,0.00
2013-9-30,82,71,58,-100,-100,-100,0,0,100,0.00,40.00,0,-999,0,0.00
2013-10-1,82,75,68,-100,-100,-100,0,0,100,0.00,40.00,0,-999,0,0.00
2013-10-2,81,69,60,-100,-100,-100,0,0,100,0.00,40.00,0,-999,0,0.00
2013-10-3,73,63,54,-100,-100,-100,0,0,100,0.00,40.00,0,-999,0,0.00
2013-10-4,85,70,51,-100,-100,-100,0,0,100,0.00,40.00,0,-999,0,0.00
2013-10-5,89,77,69,-100,-100,-100,0,0,100,0.00,40.00,0,-999,0,0.00
2013-10-6,91,76,60,-100,-100,-100,0,0,100,0.00,40.00,0,-999,0,0.00
2013-10-7,86,72,62,-100,-100,-100,0,0,100,0.00,40.00,0,-999,0,0.00
2013-10-8,84,72,58,-100,-100,-100,0,0,100,0.00,40.00,0,-999,0,0.00
2013-10-9,68,59,51,-100,-100,-100,0,0,100,0.00,40.00,0,-999,0,0.00
2013-10-10,72,62,51,-100,-100,-100,0,0,100,0.00,40.00,0,-999,0,0.00
2013-10-11,78,64,52,-100,-100,-100,0,0,100,0.00,40.00,0,-999,0,0.00
2013-10-12,79,66,54,-100,-100,-100,0,0,100,0.00,40.00,0,-999,0,0.00
2013-10-13,72,62,54,-100,-100,-100,0,0,100,0.00,40.00,0,-999,0,0.00
2013-10-14,80,65,54,-100,-100,-100,0,0,100,0.00,40.00,0,-999,0,0.00
2013-10-15,81,67,55,-100,-100,-100,0,0,100,0.00,40.00,0,-999,0,0.00
2013-10-16,86,72,62,-100,-100,-100,0,0,100,0.00,40.00,0,-999,0,0.00
2013-10-17,81,66,56,-100,-100,-100,0,0,100,0.00,40.00,0,-999,0,0.00
2013-10-18,85,70,57,-100,-100,-100,0,0,100,0.00,40.00,0,-999,0,0.00
2013-10-19,86,72,59,-100,-100,-100,0,0,100,0.00,40.00,0,-999,0,0.00
2013-10-20,83,68,58,-100,-100,-100,0,0,100,0.00,40.00,0,-999,0,0.00
2013-10-21,86,68,58,-100,-100,-100,0,0,100,0.00,40.00,0,-999,0,0.00
2013-10-22,84,70,60,-100,-100,-100,0,0,100,0.00,40.00,0,-999,0,0.00
2013-10-23,82,69,62,-100,-100,-100,0,0,100,0.00,40.00,0,-999,0,0.00
2013-10-24,83,70,59,-100,-100,-100,0,0,100,0.00,40.00,0,-999,0,0.00
2013-10-25,80,67,57,-100,-100,-100,0,0,100,0.00,40.00,0,-999,0,0.00
2013-10-26,79,68,57,-100,-100,-100,0,0,100,0.00,40.00,0,-999,0,0.00
2013-10-27,81,67,58,-100,-100,-100,0,0,100,0.00,40.00,0,-999,0,0.00
2013-10-28,60,56,54,-100,-100,-100,0,0,100,0.00,40.00,0,-999,0,0.00
2013-10-29,62,56,48,-100,-100,-100,0,0,100,0.00,40.00,0,-999,0,0.00
2013-10-30,66,54,46,-100,-100,-100,0,0,100,0.00,40.00,0,-999,0,0.00
2013-10-31,70,56,48,-100,-100,-100,0,0,100,0.00,40.00,0,-999,0,0.00
2013-11-1,76,60,47,-100,-100,-100,0,0,100,0.00,40.00,0,-999,0,0.00
2013-11-2,80,64,50,-100,-100,-100,0,0,100,0.00,40.00,0,-999,0,0.00
2013-11-3,65,56,51,-100,-100,-100,0,0,100,0.00,40.00,0,-999,0,0.00
2013-11-4,63,54,49,-100,-100,-100,0,0,100,0.00,40.00,0,-999,0,0.00
2013-11-5,68,56,46,-100,-100,-100,0,0,100,0.00,40.00,0,-999,0,0.00
2013-11-6,75,58,44,-100,-100,-100,0,0,100,0.00,40.00,0,-999,0,0.00
2013-11-7,76,61,51,-100,-100,-100,0,0,100,0.00,40.00,0,-999,0,0.00
2013-11-8,76,63,52,-100,-100,-100,0,0,100,0.00,40.00,0,-999,0,0.00
2013-11-9,80,63,53,-100,-100,-100,0,0,100,0.00,40.00,0,-999,0,0.00
2013-11-10,86,66,51,-100,-100,-100,0,0,100,0.00,40.00,0,-999,0,0.00
2013-11-11,77,62,53,-100,-100,-100,0,0,100,0.00,40.00,0,-999,0,0.00
2013-11-12,70,61,55,-100,-100,-100,0,0,100,0.00,40.00,0,-999,0,0.00
2013-11-13,73,60,52,-100,-100,-100,0,0,100,0.00,40.00,0,-999,0,0.00
2013-11-14,75,62,53,-100,-100,-100,0,0,100,0.00,40.00,0,-999,0,0.00
2013-11-15,64,56,49,-100,-100,-100,0,0,100,0.00,40.00,0,-999,0,0.00
2013-11-16,69,55,46,-100,-100,-100,0,0,100,0.00,40.00,0,-999,0,0.00
2013-11-17,66,54,46,-100,-100,-100,0,0,100,0.00,40.00,0,-999,0,0.00
2013-11-18,66,54,47,-100,-100,-100,0,0,100,0.00,40.00,0,-999,0,0.00
2013-11-19,64,55,47,-100,-100,-100,0,0,100,0.00,40.00,0,-999,0,0.00
2013-11-20,69,58,51,-100,-100,-100,0,0,100,0.00,40.00,0,-999,0,0.00
2013-11-21,60,56,50,-100,-100,-100,0,0,100,0.00,40.00,0,-999,0,0.00
2013-11-22,57,52,48,-100,-100,-100,0,0,100,0.00,40.00,0,-999,0,0.00
2013-11-23,60,55,47,-100,-100,-100,0,0,100,0.00,40.00,0,-999,0,0.00
2013-11-24,65,56,51,-100,-100,-100,0,0,100,0.00,40.00,0,-999,0,0.00
2013-11-25,63,53,47,-100,-100,-100,0,0,100,0.00,40.00,0,-999,0,0.00
2013-11-26,64,53,46,-100,-100,-100,0,0,100,0.00,40.00,0,-999,0,0.00
2013-11-27,73,68,63,-100,-100,-100,0,0,100,0.00,40.00,0,-999,0,0.00
2013-11-28,70,65,57,-100,-100,-100,0,0,100,0.00,40.00,0,-999,0,0.00
2013-11-29,67,55,49,-100,-100,-100,0,0,100,0.00,40.00,0,-999,0,0.00
2013-11-30,68,57,49,-100,-100,-100,0,0,100,0.00,40.00,0,-999,0,0.00
2013-12-1,66,55,48,-100,-100,-100,0,0,100,0.00,40.00,0,-999,0,0.00
2013-12-2,67,54,47,-100,-100,-100,0,0,100,0.00,40.00,0,-999,0,0.00
2013-12-3,62,52,43,-100,-100,-100,0,0,100,0.00,40.00,0,-999,0,0.00
2013-12-4,53,43,36,-100,-100,-100,0,0,100,0.00,40.00,0,-999,0,0.00
2013-12-5,48,38,31,-100,-100,-100,0,0,100,0.00,40.00,0,-999,0,0.00
2013-12-6,52,39,29,-100,-100,-100,0,0,100,0.00,40.00,0,-999,0,0.00
2013-12-7,47,40,35,-100,-100,-100,0,0,100,0.00,40.00,0,-999,0,0.00
2013-12-8,44,37,31,-100,-100,-100,0,0,100,0.00,40.00,0,-999,0,0.00
2013-12-9,52,36,28,-100,-100,-100,0,0,100,0.00,40.00,0,-999,0,0.00
2013-12-10,48,37,29,-100,-100,-100,0,0,100,0.00,40.00,0,-999,0,0.00
2013-12-11,59,46,30,-100,-100,-100,0,0,100,0.00,40.00,0,-999,0,0.00
2013-12-12,61,46,36,-100,-100,-100,0,0,100,0.00,40.00,0,-999,0,0.00
2013-12-13,58,45,36,-100,-100,-100,0,0,100,0.00,40.00,0,-999,0,0.00
2013-12-14,62,46,36,-100,-100,-100,0,0,100,0.00,40.00,0,-999,0,0.00
2013-12-15,62,47,37,-100,-100,-100,0,0,100,0.00,40.00,0,-999,0,0.00
2013-12-16,61,47,41,-100,-100,-100,0,0,100,0.00,40.00,0,-999,0,0.00
2013-12-17,70,57,45,-100,-100,-100,0,0,100,0.00,40.00,0,-999,0,0.00
2013-12-18,65,56,49,-100,-100,-100,0,0,100,0.00,40.00,0,-999,0,0.00
2013-12-19,54,48,41,-100,-100,-100,0,0,100,0.00,40.00,0,-999,0,0.00
2013-12-20,52,47,41,-100,-100,-100,0,0,100,0.00,40.00,0,-999,0,0.00
2013-12-21,61,50,39,-100,-100,-100,0,0,100,0.00,40.00,0,-999,0,0.00
2013-12-22,64,50,43,-100,-100,-100,0,0,100,0.00,40.00,0,-999,0,0.00
2013-12-23,66,51,40,-100,-100,-100,0,0,100,0.00,40.00,0,-999,0,0.00
2013-12-24,63,50,42,-100,-100,-100,0,0,100,0.00,40.00,0,-999,0,0.00
2013-12-25,69,52,43,-100,-100,-100,0,0,100,0.00,40.00,0,-999,0,0.00
2013-12-26,65,48,40,-100,-100,-100,0,0,100,0.00,40.00,0,-999,0,0.00
2013-12-27,69,53,43,-100,-100,-100,0,0,100,0.00,40.00,0,-999,0,0.00
2013-12-28,61,50,43,-100,-100,-100,0,0,100,0.00,40.00,0,-999,0,0.00
2013-12-29,69,52,39,-100,-100,-100,0,0,100,0.00,40.00,0,-999,0,0.00
2013-12-30,69,53,43,-100,-100,-100,0,0,100,0.00,40.00,0,-999,0,0.00
2013-12-31,65,54,47,-100,-100,-100,0,0,100,0.00,40.00,0,-999,0,0.00
2014-1-1,63,51,42,-100,-100,-100,0,0,100,0.00,40.00,0,-999,0,0.00
2014-1-2,67,52,42,-100,-100,-100,0,0,100,0.00,40.00,0,-999,0,0.00